C2018 KNYL-KVQQ

Flight info

Callsign C2018
Flight time N/A
Altitude 19000
Route KYNL-MXL-PAPBI-SVC-PIO-BGS-MQP-GGG-HEZ-GCV-OZR-TAY-KVQQ
Aircraft C130/M-SDE2E3FGRY/C

Departure

Time 2026-04-29 18:30
Airport Yuma International Airport / Marine Corps Air Station Yuma (KNYL)

Arrival

Time N/A
Airport Cecil Airport (KVQQ)
Time Latitude Longitude Altitude Speed Heading
2026-04-29 18:20 32.66013 -114.61002 233 ft 0 kts 180°
2026-04-29 18:23 32.66012 -114.61002 233 ft 0 kts 180°
2026-04-29 18:24 32.65998 -114.61002 233 ft 6 kts 180°
2026-04-29 18:24 32.65952 -114.60980 233 ft 11 kts 149°
2026-04-29 18:24 32.65909 -114.60885 233 ft 16 kts 92°
2026-04-29 18:24 32.65923 -114.60745 233 ft 18 kts 62°
2026-04-29 18:25 32.65998 -114.60625 233 ft 15 kts 69°
2026-04-29 18:25 32.66004 -114.60598 233 ft 0 kts 90°
2026-04-29 18:25 32.66004 -114.60586 233 ft 4 kts 89°
2026-04-29 18:25 32.66028 -114.60549 233 ft 9 kts 20°
2026-04-29 18:26 32.66106 -114.60547 233 ft 15 kts 359°
2026-04-29 18:26 32.66226 -114.60548 233 ft 19 kts
2026-04-29 18:26 32.66365 -114.60547 233 ft 21 kts
2026-04-29 18:26 32.66515 -114.60549 233 ft 22 kts 359°
2026-04-29 18:27 32.66652 -114.60551 233 ft 14 kts
2026-04-29 18:27 32.66677 -114.60491 233 ft 11 kts 90°
2026-04-29 18:27 32.66677 -114.60476 233 ft 0 kts 90°
2026-04-29 18:28 32.66677 -114.60473 233 ft 1 kts 90°
2026-04-29 18:28 32.66674 -114.60430 233 ft 8 kts 111°
2026-04-29 18:29 32.66644 -114.60403 233 ft 0 kts 179°
2026-04-29 18:29 32.66303 -114.60399 233 ft 83 kts 179°
2026-04-29 18:29 32.65527 -114.60383 233 ft 133 kts 179°
2026-04-29 18:30 32.64539 -114.60363 409 ft 145 kts 179°
2026-04-29 18:30 32.63532 -114.60275 742 ft 149 kts 170°
2026-04-29 18:30 32.62648 -114.59588 891 ft 158 kts 135°
2026-04-29 18:30 32.62230 -114.58377 1126 ft 167 kts 102°
2026-04-29 18:31 32.62189 -114.56951 1404 ft 181 kts 90°
2026-04-29 18:31 32.62253 -114.55384 1673 ft 200 kts 86°
2026-04-29 18:31 32.62385 -114.53686 2041 ft 211 kts 84°
2026-04-29 18:31 32.62524 -114.51906 2434 ft 221 kts 85°
2026-04-29 18:32 32.62663 -114.50086 2870 ft 226 kts 85°
2026-04-29 18:32 32.62940 -114.46352 3886 ft 231 kts 84°
2026-04-29 18:32 32.63073 -114.44417 4243 ft 240 kts 84°
2026-04-29 18:33 32.63201 -114.42437 4757 ft 241 kts 84°
2026-04-29 18:33 32.63321 -114.40429 5198 ft 246 kts 84°
2026-04-29 18:33 32.63436 -114.38389 5692 ft 248 kts 84°
2026-04-29 18:33 32.63549 -114.36326 6170 ft 252 kts 85°
2026-04-29 18:34 32.63667 -114.34209 6510 ft 262 kts 85°
2026-04-29 18:34 32.63750 -114.32774 6809 ft 264 kts 85°
2026-04-29 18:34 32.63921 -114.29859 7538 ft 262 kts 85°
2026-04-29 18:34 32.64047 -114.27720 8149 ft 258 kts 85°
2026-04-29 18:35 32.64172 -114.25584 8612 ft 262 kts 85°
2026-04-29 18:35 32.64277 -114.23403 9041 ft 267 kts 87°
2026-04-29 18:35 32.64346 -114.21176 9415 ft 273 kts 88°
2026-04-29 18:35 32.64385 -114.18911 9818 ft 276 kts 89°
2026-04-29 18:36 32.64397 -114.16650 10225 ft 279 kts 90°
2026-04-29 18:36 32.64389 -114.14369 10790 ft 274 kts 90°
2026-04-29 18:36 32.64362 -114.12130 11405 ft 268 kts 91°
2026-04-29 18:36 32.64321 -114.09912 11857 ft 272 kts 91°
2026-04-29 18:37 32.64271 -114.07653 12296 ft 273 kts 91°
2026-04-29 18:37 32.64218 -114.05427 12903 ft 268 kts 92°
2026-04-29 18:37 32.64162 -114.03246 13561 ft 260 kts 92°
2026-04-29 18:37 32.64103 -114.01136 14196 ft 255 kts 92°
2026-04-29 18:38 32.64076 -113.99046 14786 ft 252 kts 89°
2026-04-29 18:38 32.64152 -113.96961 15225 ft 256 kts 86°
2026-04-29 18:38 32.64258 -113.94839 15641 ft 260 kts 86°
2026-04-29 18:38 32.64405 -113.92691 16095 ft 261 kts 84°
2026-04-29 18:39 32.64570 -113.90541 16556 ft 263 kts 84°
2026-04-29 18:39 32.64732 -113.88370 16993 ft 265 kts 85°
2026-04-29 18:39 32.64860 -113.86167 17410 ft 268 kts 85°
2026-04-29 18:39 32.65008 -113.83971 17913 ft 267 kts 84°
2026-04-29 18:40 32.65151 -113.81771 18345 ft 269 kts 86°
2026-04-29 18:40 32.65260 -113.79522 18623 ft 278 kts 86°
2026-04-29 18:40 32.65382 -113.77226 18850 ft 287 kts 85°
2026-04-29 18:40 32.65533 -113.74785 18978 ft 299 kts 85°
2026-04-29 18:41 32.65961 -113.67219 19017 ft 333 kts 86°
2026-04-29 18:41 32.66105 -113.64437 19006 ft 341 kts 86°
2026-04-29 18:42 32.66245 -113.61601 19003 ft 347 kts 86°
2026-04-29 18:42 32.66380 -113.58724 19002 ft 351 kts 86°
2026-04-29 18:42 32.66511 -113.55811 19001 ft 355 kts 86°
2026-04-29 18:42 32.66638 -113.52875 19001 ft 358 kts 87°
2026-04-29 18:43 32.66761 -113.49921 19001 ft 360 kts 87°
2026-04-29 18:43 32.66881 -113.46945 19001 ft 362 kts 87°
2026-04-29 18:43 32.66998 -113.43952 19000 ft 363 kts 87°
2026-04-29 18:43 32.67111 -113.40956 19000 ft 364 kts 87°
2026-04-29 18:44 32.67220 -113.37989 19000 ft 365 kts 87°
2026-04-29 18:44 32.67327 -113.34973 19000 ft 366 kts 87°
2026-04-29 18:44 32.67431 -113.31956 19000 ft 366 kts 87°
2026-04-29 18:44 32.67532 -113.28933 19000 ft 367 kts 88°
2026-04-29 18:45 32.67631 -113.25906 19000 ft 367 kts 88°
2026-04-29 18:45 32.67726 -113.22876 19000 ft 367 kts 88°
2026-04-29 18:45 32.67820 -113.19843 19000 ft 368 kts 88°
2026-04-29 18:45 32.67910 -113.16809 19000 ft 368 kts 88°
2026-04-29 18:46 32.67997 -113.13774 19000 ft 368 kts 88°
2026-04-29 18:46 32.68082 -113.10737 19000 ft 368 kts 88°
2026-04-29 18:46 32.68165 -113.07700 19000 ft 368 kts 88°
2026-04-29 18:46 32.68245 -113.04655 19000 ft 368 kts 88°
2026-04-29 18:47 32.68322 -113.01620 19000 ft 368 kts 88°
2026-04-29 18:47 32.68396 -112.98580 19000 ft 369 kts 88°
2026-04-29 18:47 32.68468 -112.95540 19000 ft 369 kts 88°
2026-04-29 18:47 32.68538 -112.92498 19000 ft 369 kts 88°
2026-04-29 18:48 32.68670 -112.89458 19000 ft 369 kts 86°
2026-04-29 18:48 32.68854 -112.86446 19000 ft 369 kts 85°
2026-04-29 18:48 32.69061 -112.83420 19000 ft 369 kts 85°
2026-04-29 18:48 32.69287 -112.80382 19000 ft 369 kts 84°
2026-04-29 18:49 32.69527 -112.77351 19000 ft 369 kts 84°
2026-04-29 18:49 32.69777 -112.74321 19000 ft 369 kts 84°
2026-04-29 18:49 32.70035 -112.71291 19000 ft 369 kts 84°
2026-04-29 18:49 32.70300 -112.68264 19000 ft 369 kts 83°
2026-04-29 18:50 32.70568 -112.65240 19000 ft 369 kts 83°
2026-04-29 18:50 32.70840 -112.62216 19000 ft 369 kts 83°
2026-04-29 18:50 32.71113 -112.59189 19000 ft 369 kts 83°
2026-04-29 18:50 32.71388 -112.56170 19000 ft 369 kts 83°
2026-04-29 18:51 32.71664 -112.53132 19000 ft 369 kts 83°
2026-04-29 18:51 32.71939 -112.50111 19000 ft 369 kts 83°
2026-04-29 18:51 32.72213 -112.47083 19000 ft 369 kts 83°
2026-04-29 18:51 32.72485 -112.44080 19000 ft 369 kts 83°
2026-04-29 18:52 32.72738 -112.41025 19000 ft 369 kts 85°
2026-04-29 18:52 32.72903 -112.37983 19000 ft 369 kts 86°
2026-04-29 18:52 32.73029 -112.34947 19000 ft 369 kts 87°
2026-04-29 18:52 32.73138 -112.31900 19000 ft 369 kts 88°
2026-04-29 18:53 32.73230 -112.28854 19000 ft 369 kts 88°
2026-04-29 18:53 32.73310 -112.25813 19000 ft 369 kts 88°
2026-04-29 18:53 32.73378 -112.22766 19000 ft 369 kts 88°
2026-04-29 18:53 32.73463 -112.19718 19000 ft 369 kts 87°
2026-04-29 18:54 32.73567 -112.16681 19000 ft 369 kts 88°
2026-04-29 18:54 32.73630 -112.14718 19000 ft 369 kts 88°
2026-04-29 18:54 32.73723 -112.11616 19000 ft 369 kts 88°
2026-04-29 18:54 32.73808 -112.08578 19000 ft 369 kts 88°
2026-04-29 18:55 32.73887 -112.05527 19000 ft 369 kts 88°
2026-04-29 18:55 32.73961 -112.02479 19000 ft 369 kts 88°
2026-04-29 18:55 32.74031 -111.99434 19000 ft 369 kts 88°
2026-04-29 18:55 32.74096 -111.96387 19000 ft 369 kts 88°
2026-04-29 18:56 32.74157 -111.93342 19000 ft 369 kts 88°
2026-04-29 18:56 32.74215 -111.90296 19000 ft 369 kts 89°
2026-04-29 18:56 32.74269 -111.87246 19000 ft 369 kts 89°
2026-04-29 18:56 32.74320 -111.84200 19000 ft 369 kts 89°
2026-04-29 18:57 32.74367 -111.81155 19000 ft 369 kts 89°
2026-04-29 18:57 32.74412 -111.78110 19000 ft 369 kts 89°
2026-04-29 18:57 32.74454 -111.75057 19000 ft 369 kts 89°
2026-04-29 18:57 32.74493 -111.72015 19000 ft 369 kts 89°
2026-04-29 18:58 32.74529 -111.68964 19000 ft 369 kts 89°
2026-04-29 18:58 32.74563 -111.65915 19000 ft 369 kts 89°
2026-04-29 18:58 32.74593 -111.62909 19000 ft 369 kts 89°
2026-04-29 18:58 32.74621 -111.59863 19000 ft 369 kts 89°
2026-04-29 18:59 32.74646 -111.56815 19000 ft 369 kts 89°
2026-04-29 18:59 32.74669 -111.53764 19000 ft 369 kts 89°
2026-04-29 18:59 32.74689 -111.50714 19000 ft 369 kts 89°
2026-04-29 18:59 32.74707 -111.47666 19000 ft 369 kts 89°
2026-04-29 19:00 32.74722 -111.44625 19000 ft 369 kts 90°
2026-04-29 19:00 32.74734 -111.41564 19000 ft 369 kts 90°
2026-04-29 19:00 32.74741 -111.38515 19036 ft 371 kts 90°
2026-04-29 19:00 32.74661 -111.35434 18996 ft 374 kts 93°
2026-04-29 19:01 32.74498 -111.32353 18996 ft 373 kts 94°
2026-04-29 19:01 32.74357 -111.29277 18998 ft 372 kts 93°
2026-04-29 19:01 32.74257 -111.26205 19000 ft 372 kts 92°
2026-04-29 19:01 32.74198 -111.23141 19000 ft 371 kts 91°
2026-04-29 19:02 32.74172 -111.20078 19000 ft 371 kts 90°
2026-04-29 19:02 32.74173 -111.17016 19000 ft 370 kts 90°
2026-04-29 19:02 32.74195 -111.13946 19000 ft 370 kts 89°
2026-04-29 19:02 32.74234 -111.10937 19000 ft 370 kts 89°
2026-04-29 19:03 32.74286 -111.07835 19000 ft 370 kts 89°
2026-04-29 19:03 32.74348 -111.04784 19000 ft 370 kts 88°
2026-04-29 19:03 32.74417 -111.01774 19000 ft 370 kts 88°
2026-04-29 19:03 32.74492 -110.98726 19000 ft 369 kts 88°
2026-04-29 19:04 32.74571 -110.95675 19000 ft 369 kts 88°
2026-04-29 19:04 32.74653 -110.92628 19000 ft 369 kts 88°
2026-04-29 19:04 32.74737 -110.89575 19000 ft 369 kts 88°
2026-04-29 19:04 32.74822 -110.86530 19000 ft 369 kts 88°
2026-04-29 19:05 32.74907 -110.83479 19000 ft 369 kts 88°
2026-04-29 19:05 32.74992 -110.80434 19000 ft 369 kts 88°
2026-04-29 19:05 32.75075 -110.77386 19000 ft 369 kts 88°
2026-04-29 19:05 32.75158 -110.74341 19000 ft 369 kts 88°
2026-04-29 19:06 32.75239 -110.71291 19000 ft 369 kts 88°
2026-04-29 19:06 32.75319 -110.68245 19000 ft 369 kts 88°
2026-04-29 19:06 32.75473 -110.62149 19000 ft 369 kts 88°
2026-04-29 19:07 32.75547 -110.59100 19000 ft 369 kts 88°
2026-04-29 19:07 32.75595 -110.57042 19000 ft 369 kts 88°
2026-04-29 19:07 32.75688 -110.53009 19000 ft 369 kts 88°
2026-04-29 19:07 32.75755 -110.49964 19000 ft 369 kts 88°
2026-04-29 19:08 32.75820 -110.46909 19000 ft 369 kts 88°
2026-04-29 19:08 32.75883 -110.43865 19000 ft 369 kts 88°
2026-04-29 19:08 32.75943 -110.40813 19000 ft 369 kts 88°
2026-04-29 19:08 32.76001 -110.37768 19000 ft 369 kts 89°
2026-04-29 19:09 32.76056 -110.34720 19000 ft 369 kts 89°
2026-04-29 19:09 32.76110 -110.31670 19000 ft 369 kts 89°
2026-04-29 19:09 32.76160 -110.28625 19000 ft 369 kts 89°
2026-04-29 19:09 32.76209 -110.25571 19000 ft 369 kts 89°
2026-04-29 19:10 32.76255 -110.22524 19000 ft 369 kts 89°
2026-04-29 19:10 32.76298 -110.19479 19000 ft 369 kts 89°
2026-04-29 19:10 32.76339 -110.16424 19000 ft 369 kts 89°
2026-04-29 19:10 32.76377 -110.13378 19000 ft 369 kts 89°
2026-04-29 19:11 32.76413 -110.10334 19000 ft 369 kts 89°
2026-04-29 19:11 32.76447 -110.07280 19000 ft 369 kts 89°
2026-04-29 19:11 32.76478 -110.04232 19000 ft 369 kts 89°
2026-04-29 19:11 32.76507 -110.01182 19000 ft 369 kts 89°
2026-04-29 19:12 32.76533 -109.98130 19000 ft 369 kts 89°
2026-04-29 19:12 32.76557 -109.95082 19000 ft 369 kts 89°
2026-04-29 19:12 32.76578 -109.92038 19000 ft 369 kts 89°
2026-04-29 19:12 32.76590 -109.90014 19000 ft 369 kts 89°
2026-04-29 19:13 32.76613 -109.85935 19000 ft 369 kts 89°
2026-04-29 19:13 32.76627 -109.82886 19000 ft 369 kts 90°
2026-04-29 19:13 32.76638 -109.79832 19000 ft 369 kts 90°
2026-04-29 19:13 32.76646 -109.76785 19000 ft 369 kts 90°
2026-04-29 19:14 32.76653 -109.73736 19000 ft 369 kts 90°
2026-04-29 19:14 32.76656 -109.70684 19000 ft 369 kts 90°
2026-04-29 19:14 32.76658 -109.67635 19000 ft 369 kts 90°
2026-04-29 19:14 32.76656 -109.64582 19000 ft 369 kts 90°
2026-04-29 19:15 32.76653 -109.61534 19000 ft 369 kts 90°
2026-04-29 19:15 32.76646 -109.58483 19000 ft 369 kts 90°
2026-04-29 19:15 32.76637 -109.55432 19000 ft 369 kts 90°
2026-04-29 19:15 32.76626 -109.52384 19000 ft 369 kts 90°
2026-04-29 19:16 32.76612 -109.49331 19000 ft 369 kts 90°
2026-04-29 19:16 32.76596 -109.46298 19000 ft 369 kts 90°
2026-04-29 19:16 32.76576 -109.43266 19000 ft 369 kts 90°
2026-04-29 19:16 32.76553 -109.40208 19000 ft 369 kts 90°
2026-04-29 19:17 32.76527 -109.37158 19000 ft 369 kts 90°
2026-04-29 19:17 32.76503 -109.34097 19018 ft 374 kts 90°
2026-04-29 19:17 32.76589 -109.31014 19051 ft 372 kts 86°
2026-04-29 19:17 32.76877 -109.27957 19025 ft 372 kts 81°
2026-04-29 19:18 32.77395 -109.24954 19008 ft 371 kts 75°
2026-04-29 19:18 32.77773 -109.22974 19004 ft 371 kts 78°
2026-04-29 19:18 32.78261 -109.18908 19003 ft 371 kts 82°
2026-04-29 19:18 32.78545 -109.15878 19001 ft 371 kts 83°
2026-04-29 19:19 32.78792 -109.12818 19000 ft 370 kts 84°
2026-04-29 19:19 32.79005 -109.09769 19000 ft 370 kts 85°
2026-04-29 19:19 32.79192 -109.06718 19000 ft 370 kts 85°
2026-04-29 19:19 32.79357 -109.03665 19000 ft 370 kts 86°
2026-04-29 19:20 32.79503 -109.00617 19000 ft 370 kts 86°
2026-04-29 19:20 32.79635 -108.97565 19000 ft 370 kts 87°
2026-04-29 19:20 32.79753 -108.94512 19000 ft 370 kts 87°
2026-04-29 19:20 32.79861 -108.91464 19000 ft 370 kts 87°
2026-04-29 19:21 32.79960 -108.88412 19000 ft 370 kts 88°
2026-04-29 19:21 32.80052 -108.85360 19000 ft 370 kts 88°
2026-04-29 19:21 32.80135 -108.82348 19000 ft 370 kts 88°
2026-04-29 19:21 32.80213 -108.79296 19000 ft 369 kts 88°
2026-04-29 19:22 32.80286 -108.76245 19000 ft 369 kts 88°
2026-04-29 19:22 32.80355 -108.73194 19000 ft 369 kts 88°
2026-04-29 19:22 32.80420 -108.70138 19000 ft 369 kts 88°
2026-04-29 19:22 32.80480 -108.67085 19000 ft 369 kts 88°
2026-04-29 19:23 32.80538 -108.64034 19000 ft 369 kts 89°
2026-04-29 19:23 32.80592 -108.60982 19000 ft 369 kts 89°
2026-04-29 19:23 32.80642 -108.57930 19000 ft 369 kts 89°
2026-04-29 19:23 32.80690 -108.54872 19000 ft 369 kts 89°
2026-04-29 19:24 32.80735 -108.51821 19000 ft 370 kts 89°
2026-04-29 19:24 32.80777 -108.48768 19000 ft 370 kts 89°
2026-04-29 19:24 32.80817 -108.45713 19000 ft 370 kts 89°
2026-04-29 19:24 32.80854 -108.42657 19000 ft 370 kts 89°
2026-04-29 19:25 32.80888 -108.39646 19000 ft 370 kts 89°
2026-04-29 19:25 32.80920 -108.36554 19000 ft 370 kts 89°
2026-04-29 19:25 32.80950 -108.33498 19000 ft 370 kts 89°
2026-04-29 19:25 32.80976 -108.30444 19000 ft 370 kts 89°
2026-04-29 19:26 32.81001 -108.27390 19000 ft 370 kts 89°
2026-04-29 19:26 32.81023 -108.24336 19000 ft 370 kts 89°
2026-04-29 19:26 32.81042 -108.21279 19000 ft 370 kts 89°
2026-04-29 19:26 32.81066 -108.18223 19000 ft 370 kts 89°
2026-04-29 19:27 32.81097 -108.15172 19000 ft 370 kts 89°
2026-04-29 19:27 32.81134 -108.12125 19000 ft 370 kts 89°
2026-04-29 19:27 32.81176 -108.09067 19000 ft 370 kts 89°
2026-04-29 19:27 32.81220 -108.06006 19000 ft 370 kts 89°
2026-04-29 19:28 32.81265 -108.02959 19000 ft 370 kts 89°
2026-04-29 19:28 32.81312 -107.99904 19000 ft 370 kts 89°
2026-04-29 19:28 32.81358 -107.96847 19000 ft 370 kts 89°
2026-04-29 19:28 32.81405 -107.93788 19000 ft 370 kts 89°
2026-04-29 19:29 32.81451 -107.90742 19000 ft 370 kts 89°
2026-04-29 19:29 32.81499 -107.87681 19000 ft 370 kts 89°
2026-04-29 19:29 32.81545 -107.84634 19000 ft 370 kts 89°
2026-04-29 19:29 32.81593 -107.81574 19000 ft 370 kts 89°
2026-04-29 19:30 32.81641 -107.78526 19000 ft 369 kts 89°
2026-04-29 19:30 32.81689 -107.75473 19000 ft 369 kts 89°
2026-04-29 19:30 32.81738 -107.72421 19000 ft 369 kts 89°
2026-04-29 19:30 32.81785 -107.69407 19000 ft 369 kts 89°
2026-04-29 19:31 32.81831 -107.66354 19000 ft 369 kts 89°
2026-04-29 19:31 32.81876 -107.63303 19000 ft 369 kts 89°
2026-04-29 19:31 32.81919 -107.60254 19000 ft 369 kts 89°
2026-04-29 19:31 32.81959 -107.57199 19000 ft 369 kts 89°
2026-04-29 19:32 32.81995 -107.54109 19000 ft 369 kts 89°
2026-04-29 19:32 32.82027 -107.51098 19000 ft 369 kts 89°
2026-04-29 19:32 32.82057 -107.48041 19000 ft 369 kts 89°
2026-04-29 19:32 32.82083 -107.44988 19000 ft 369 kts 89°
2026-04-29 19:33 32.82108 -107.41939 19000 ft 369 kts 90°
2026-04-29 19:33 32.82130 -107.38887 19000 ft 369 kts 90°
2026-04-29 19:33 32.82150 -107.35826 19000 ft 369 kts 90°
2026-04-29 19:33 32.82167 -107.32776 19000 ft 369 kts 90°
2026-04-29 19:34 32.82181 -107.29719 19000 ft 369 kts 90°
2026-04-29 19:34 32.82192 -107.26662 19000 ft 369 kts 90°
2026-04-29 19:34 32.82201 -107.23604 19000 ft 370 kts 90°
2026-04-29 19:34 32.82206 -107.20550 19000 ft 370 kts 90°
2026-04-29 19:35 32.82209 -107.17501 19000 ft 370 kts 90°
2026-04-29 19:35 32.82209 -107.14446 19000 ft 370 kts 90°
2026-04-29 19:35 32.82205 -107.11388 19000 ft 370 kts 90°
2026-04-29 19:35 32.82198 -107.08333 19000 ft 370 kts 90°
2026-04-29 19:36 32.82187 -107.05280 19000 ft 370 kts 90°
2026-04-29 19:36 32.82173 -107.02218 19000 ft 370 kts 90°
2026-04-29 19:36 32.82155 -106.99165 18997 ft 370 kts 90°
2026-04-29 19:36 32.82121 -106.96098 19019 ft 374 kts 92°
2026-04-29 19:37 32.82001 -106.93019 19007 ft 373 kts 93°
2026-04-29 19:37 32.81961 -106.91980 19005 ft 373 kts 92°
2026-04-29 19:37 32.81856 -106.86862 19000 ft 372 kts 90°
2026-04-29 19:37 32.81865 -106.83789 19000 ft 372 kts 89°
2026-04-29 19:38 32.81920 -106.80723 19000 ft 371 kts 88°
2026-04-29 19:38 32.82010 -106.77657 19000 ft 371 kts 88°
2026-04-29 19:38 32.82130 -106.74593 19000 ft 371 kts 87°
2026-04-29 19:38 32.82274 -106.71533 19000 ft 370 kts 86°
2026-04-29 19:39 32.82435 -106.68487 19000 ft 370 kts 86°
2026-04-29 19:39 32.82611 -106.65427 19000 ft 370 kts 85°
2026-04-29 19:39 32.82796 -106.62417 19000 ft 370 kts 85°
2026-04-29 19:39 32.82990 -106.59369 19000 ft 370 kts 85°
2026-04-29 19:40 32.83194 -106.56278 19000 ft 370 kts 85°
2026-04-29 19:40 32.83397 -106.53272 19000 ft 370 kts 85°
2026-04-29 19:40 32.83606 -106.50216 19000 ft 370 kts 85°
2026-04-29 19:40 32.83816 -106.47173 19000 ft 370 kts 85°
2026-04-29 19:41 32.84028 -106.44117 19000 ft 370 kts 85°
2026-04-29 19:41 32.84239 -106.41074 19000 ft 370 kts 85°
2026-04-29 19:41 32.84452 -106.38021 19000 ft 370 kts 85°
2026-04-29 19:41 32.84664 -106.34980 19000 ft 370 kts 85°
2026-04-29 19:42 32.84875 -106.31926 19000 ft 370 kts 85°
2026-04-29 19:42 32.84946 -106.30896 19000 ft 370 kts 85°
2026-04-29 19:42 32.85294 -106.25832 19000 ft 370 kts 85°
2026-04-29 19:42 32.85501 -106.22779 19000 ft 370 kts 85°
2026-04-29 19:43 32.85637 -106.20757 19000 ft 370 kts 85°
2026-04-29 19:43 32.85807 -106.17704 18999 ft 370 kts 88°
2026-04-29 19:43 32.85798 -106.14648 19001 ft 370 kts 91°
2026-04-29 19:43 32.85704 -106.11587 19001 ft 370 kts 92°
2026-04-29 19:44 32.85585 -106.08543 19022 ft 368 kts 92°
2026-04-29 19:44 32.85499 -106.05498 19015 ft 369 kts 92°
2026-04-29 19:44 32.85421 -106.02452 19005 ft 369 kts 91°
2026-04-29 19:44 32.85341 -105.99397 19001 ft 369 kts 92°
2026-04-29 19:45 32.85256 -105.96348 19000 ft 369 kts 92°
2026-04-29 19:45 32.85166 -105.93293 19000 ft 369 kts 92°
2026-04-29 19:45 32.85069 -105.90243 19000 ft 369 kts 92°
2026-04-29 19:45 32.84967 -105.87190 19000 ft 369 kts 92°
2026-04-29 19:46 32.84861 -105.84136 19000 ft 369 kts 92°
2026-04-29 19:46 32.84750 -105.81087 19000 ft 369 kts 92°
2026-04-29 19:46 32.84635 -105.78036 19000 ft 369 kts 92°
2026-04-29 19:46 32.84517 -105.74991 19000 ft 369 kts 92°
2026-04-29 19:47 32.84395 -105.71939 19000 ft 369 kts 92°
2026-04-29 19:47 32.84269 -105.68897 19000 ft 369 kts 92°
2026-04-29 19:47 32.84139 -105.65845 19000 ft 369 kts 92°
2026-04-29 19:47 32.84006 -105.62796 19000 ft 369 kts 92°
2026-04-29 19:48 32.83869 -105.59743 19000 ft 369 kts 93°
2026-04-29 19:48 32.83776 -105.57726 19000 ft 369 kts 93°
2026-04-29 19:48 32.83585 -105.53650 19000 ft 369 kts 93°
2026-04-29 19:48 32.83438 -105.50603 19000 ft 369 kts 93°
2026-04-29 19:49 32.83288 -105.47553 19000 ft 369 kts 93°
2026-04-29 19:49 32.83136 -105.44512 19000 ft 369 kts 93°
2026-04-29 19:49 32.82980 -105.41462 19000 ft 369 kts 93°
2026-04-29 19:49 32.82821 -105.38415 19000 ft 369 kts 93°
2026-04-29 19:50 32.82660 -105.35364 19000 ft 369 kts 93°
2026-04-29 19:50 32.82496 -105.32313 19000 ft 369 kts 93°
2026-04-29 19:50 32.82330 -105.29272 19000 ft 369 kts 94°
2026-04-29 19:50 32.82163 -105.26224 19000 ft 369 kts 94°
2026-04-29 19:51 32.81995 -105.23176 19000 ft 370 kts 94°
2026-04-29 19:51 32.81833 -105.20170 19000 ft 370 kts 94°
2026-04-29 19:51 32.81671 -105.17122 19000 ft 370 kts 94°
2026-04-29 19:51 32.81509 -105.14069 19000 ft 370 kts 94°
2026-04-29 19:52 32.81347 -105.11017 19000 ft 370 kts 94°
2026-04-29 19:52 32.81185 -105.07968 19000 ft 370 kts 94°
2026-04-29 19:52 32.81022 -105.04915 19000 ft 370 kts 94°
2026-04-29 19:52 32.80858 -105.01870 19000 ft 370 kts 94°
2026-04-29 19:53 32.80690 -104.98815 19000 ft 370 kts 94°
2026-04-29 19:53 32.80520 -104.95768 19000 ft 370 kts 94°
2026-04-29 19:53 32.80346 -104.92716 19000 ft 370 kts 94°
2026-04-29 19:53 32.80169 -104.89671 19000 ft 370 kts 94°
2026-04-29 19:54 32.79806 -104.83566 19000 ft 370 kts 94°
2026-04-29 19:54 32.79621 -104.80518 19000 ft 370 kts 94°
2026-04-29 19:54 32.79433 -104.77466 19000 ft 370 kts 94°
2026-04-29 19:55 32.79242 -104.74406 19000 ft 370 kts 94°
2026-04-29 19:55 32.79049 -104.71359 19000 ft 370 kts 95°
2026-04-29 19:55 32.78853 -104.68304 19000 ft 370 kts 95°
2026-04-29 19:55 32.78655 -104.65261 19000 ft 370 kts 95°
2026-04-29 19:56 32.78453 -104.62201 19000 ft 370 kts 95°
2026-04-29 19:56 32.78250 -104.59158 19000 ft 370 kts 95°
2026-04-29 19:56 32.78044 -104.56107 19000 ft 370 kts 95°
2026-04-29 19:56 32.77835 -104.53052 19000 ft 370 kts 95°
2026-04-29 19:57 32.77624 -104.50006 19000 ft 370 kts 95°
2026-04-29 19:57 32.77483 -104.47993 19000 ft 370 kts 95°
2026-04-29 19:57 32.77194 -104.43911 19000 ft 370 kts 95°
2026-04-29 19:57 32.76978 -104.40891 19000 ft 370 kts 95°
2026-04-29 19:58 32.76756 -104.37843 19000 ft 370 kts 95°
2026-04-29 19:58 32.76533 -104.34796 19000 ft 370 kts 95°
2026-04-29 19:58 32.76306 -104.31743 19000 ft 370 kts 95°
2026-04-29 19:58 32.76077 -104.28694 19000 ft 370 kts 95°
2026-04-29 19:59 32.75847 -104.25652 19000 ft 370 kts 95°
2026-04-29 19:59 32.75613 -104.22604 19000 ft 370 kts 95°
2026-04-29 19:59 32.75377 -104.19556 19000 ft 370 kts 96°
2026-04-29 19:59 32.75138 -104.16514 19000 ft 370 kts 96°
2026-04-29 20:00 32.74897 -104.13462 19000 ft 370 kts 96°
2026-04-29 20:00 32.74653 -104.10416 19000 ft 370 kts 96°
2026-04-29 20:00 32.74407 -104.07375 19000 ft 370 kts 96°
2026-04-29 20:00 32.74158 -104.04327 19000 ft 370 kts 96°
2026-04-29 20:01 32.73908 -104.01291 19000 ft 370 kts 96°
2026-04-29 20:01 32.73654 -103.98245 19000 ft 370 kts 96°
2026-04-29 20:01 32.73398 -103.95195 19000 ft 370 kts 96°
2026-04-29 20:01 32.73140 -103.92162 19000 ft 370 kts 96°
2026-04-29 20:02 32.72878 -103.89112 19000 ft 370 kts 96°
2026-04-29 20:02 32.72615 -103.86072 19000 ft 370 kts 96°
2026-04-29 20:02 32.72349 -103.83026 19000 ft 370 kts 96°
2026-04-29 20:02 32.72171 -103.81011 19000 ft 370 kts 96°
2026-04-29 20:03 32.71810 -103.76947 19000 ft 370 kts 96°
2026-04-29 20:03 32.71536 -103.73904 19000 ft 370 kts 96°
2026-04-29 20:03 32.71261 -103.70869 19000 ft 370 kts 96°
2026-04-29 20:03 32.70982 -103.67828 19000 ft 370 kts 96°
2026-04-29 20:04 32.70701 -103.64782 19000 ft 370 kts 97°
2026-04-29 20:04 32.70418 -103.61746 19000 ft 370 kts 97°
2026-04-29 20:04 32.70131 -103.58703 19000 ft 370 kts 97°
2026-04-29 20:04 32.69844 -103.55671 19000 ft 370 kts 97°
2026-04-29 20:05 32.69552 -103.52626 19000 ft 370 kts 97°
2026-04-29 20:05 32.69338 -103.49569 19000 ft 371 kts 93°
2026-04-29 20:05 32.69272 -103.46512 19001 ft 371 kts 91°
2026-04-29 20:05 32.69220 -103.43454 19000 ft 371 kts 91°
2026-04-29 20:06 32.69175 -103.40438 19000 ft 371 kts 91°
2026-04-29 20:06 32.69136 -103.37376 19000 ft 371 kts 91°
2026-04-29 20:06 32.69100 -103.34281 19000 ft 371 kts 91°
2026-04-29 20:06 32.69068 -103.31259 19000 ft 371 kts 91°
2026-04-29 20:07 32.69037 -103.28199 19000 ft 371 kts 91°
2026-04-29 20:07 32.69007 -103.25141 19000 ft 371 kts 91°
2026-04-29 20:07 32.68977 -103.22082 19000 ft 371 kts 91°
2026-04-29 20:07 32.68947 -103.19027 19000 ft 371 kts 91°
2026-04-29 20:08 32.68917 -103.15967 19000 ft 371 kts 91°
2026-04-29 20:08 32.68896 -103.13935 19000 ft 371 kts 91°
2026-04-29 20:08 32.68853 -103.09848 19000 ft 371 kts 91°
2026-04-29 20:08 32.68819 -103.06790 19000 ft 371 kts 91°
2026-04-29 20:09 32.68785 -103.03724 19000 ft 371 kts 91°
2026-04-29 20:09 32.68749 -103.00666 19000 ft 371 kts 91°
2026-04-29 20:09 32.68711 -102.97611 19000 ft 371 kts 91°
2026-04-29 20:09 32.68672 -102.94551 19000 ft 371 kts 91°
2026-04-29 20:10 32.68631 -102.91498 19000 ft 371 kts 91°
2026-04-29 20:10 32.68589 -102.88437 19000 ft 371 kts 91°
2026-04-29 20:10 32.68550 -102.85379 19000 ft 370 kts 91°
2026-04-29 20:10 32.68512 -102.82322 19000 ft 370 kts 91°
2026-04-29 20:11 32.68474 -102.79262 19000 ft 370 kts 91°
2026-04-29 20:11 32.68435 -102.76210 19000 ft 370 kts 91°
2026-04-29 20:11 32.68393 -102.73157 19000 ft 370 kts 91°
2026-04-29 20:11 32.68348 -102.70100 19000 ft 370 kts 91°
2026-04-29 20:12 32.68301 -102.67050 19000 ft 370 kts 91°
2026-04-29 20:12 32.68251 -102.63988 19000 ft 370 kts 91°
2026-04-29 20:12 32.68198 -102.60942 19000 ft 370 kts 91°
2026-04-29 20:12 32.68143 -102.57883 19000 ft 370 kts 91°
2026-04-29 20:13 32.68084 -102.54831 19000 ft 370 kts 91°
2026-04-29 20:13 32.68044 -102.52807 19000 ft 370 kts 92°
2026-04-29 20:13 32.67961 -102.48722 19000 ft 370 kts 92°
2026-04-29 20:13 32.67896 -102.45659 19000 ft 370 kts 92°
2026-04-29 20:14 32.67828 -102.42611 19000 ft 370 kts 92°
2026-04-29 20:14 32.67755 -102.39546 19000 ft 370 kts 92°
2026-04-29 20:14 32.67676 -102.36496 19000 ft 370 kts 92°
2026-04-29 20:14 32.67593 -102.33439 19000 ft 371 kts 92°
2026-04-29 20:15 32.67507 -102.30386 19000 ft 371 kts 92°
2026-04-29 20:15 32.67417 -102.27325 19000 ft 371 kts 92°
2026-04-29 20:15 32.67325 -102.24270 19000 ft 371 kts 92°
2026-04-29 20:15 32.67230 -102.21210 19000 ft 371 kts 92°
2026-04-29 20:16 32.67133 -102.18150 19000 ft 371 kts 92°
2026-04-29 20:16 32.67031 -102.15097 19000 ft 371 kts 92°
2026-04-29 20:16 32.66928 -102.12085 19000 ft 371 kts 92°
2026-04-29 20:16 32.66819 -102.08983 19000 ft 371 kts 92°
2026-04-29 20:17 32.66710 -102.05968 19000 ft 371 kts 92°
2026-04-29 20:17 32.66597 -102.02915 19000 ft 371 kts 92°
2026-04-29 20:17 32.66479 -101.99816 19000 ft 371 kts 92°
2026-04-29 20:17 32.66361 -101.96795 19000 ft 371 kts 93°
2026-04-29 20:18 32.66239 -101.93739 19000 ft 371 kts 93°
2026-04-29 20:18 32.66116 -101.90690 19000 ft 371 kts 93°
2026-04-29 20:18 32.65989 -101.87631 19000 ft 371 kts 93°
2026-04-29 20:18 32.65859 -101.84578 19000 ft 371 kts 93°
2026-04-29 20:19 32.65727 -101.81516 19000 ft 371 kts 93°
2026-04-29 20:19 32.65592 -101.78460 19000 ft 371 kts 93°
2026-04-29 20:19 32.65455 -101.75407 19000 ft 371 kts 93°
2026-04-29 20:19 32.65316 -101.72351 19000 ft 371 kts 93°
2026-04-29 20:20 32.65173 -101.69292 19000 ft 371 kts 93°
2026-04-29 20:20 32.65029 -101.66243 19000 ft 371 kts 93°
2026-04-29 20:20 32.64882 -101.63188 19000 ft 371 kts 94°
2026-04-29 20:20 32.64732 -101.60126 19000 ft 371 kts 94°
2026-04-29 20:21 32.64580 -101.57071 19000 ft 371 kts 94°
2026-04-29 20:21 32.64425 -101.54022 19000 ft 371 kts 94°
2026-04-29 20:21 32.64268 -101.50963 19000 ft 371 kts 94°
2026-04-29 20:21 32.64108 -101.47909 19000 ft 371 kts 94°
2026-04-29 20:22 32.63946 -101.44857 19000 ft 371 kts 94°
2026-04-29 20:22 32.63781 -101.41797 19000 ft 371 kts 94°
2026-04-29 20:22 32.63615 -101.38750 19000 ft 371 kts 94°
2026-04-29 20:22 32.63445 -101.35690 19000 ft 371 kts 94°
2026-04-29 20:23 32.63273 -101.32640 19000 ft 371 kts 94°
2026-04-29 20:23 32.63099 -101.29592 19000 ft 371 kts 94°
2026-04-29 20:23 32.62921 -101.26529 19000 ft 371 kts 94°
2026-04-29 20:23 32.62742 -101.23483 19000 ft 371 kts 94°
2026-04-29 20:24 32.62560 -101.20429 19000 ft 371 kts 94°
2026-04-29 20:24 32.62376 -101.17379 19000 ft 371 kts 94°
2026-04-29 20:24 32.62191 -101.14359 19000 ft 371 kts 94°
2026-04-29 20:24 32.62003 -101.11268 19000 ft 371 kts 94°
2026-04-29 20:25 32.61830 -101.08254 19000 ft 371 kts 94°
2026-04-29 20:25 32.61668 -101.05203 19000 ft 371 kts 94°
2026-04-29 20:25 32.61515 -101.02144 19000 ft 371 kts 94°
2026-04-29 20:25 32.61369 -100.99083 19000 ft 371 kts 93°
2026-04-29 20:26 32.61229 -100.96026 19000 ft 371 kts 93°
2026-04-29 20:26 32.61092 -100.92968 19000 ft 371 kts 93°
2026-04-29 20:26 32.60958 -100.89908 19000 ft 371 kts 93°
2026-04-29 20:26 32.60825 -100.86853 19000 ft 371 kts 93°
2026-04-29 20:27 32.60693 -100.83795 19000 ft 371 kts 93°
2026-04-29 20:27 32.60650 -100.82805 19000 ft 371 kts 93°
2026-04-29 20:27 32.60429 -100.77681 19000 ft 371 kts 93°
2026-04-29 20:27 32.60298 -100.74658 19000 ft 371 kts 93°
2026-04-29 20:28 32.60163 -100.71560 19000 ft 371 kts 93°
2026-04-29 20:28 32.60027 -100.68504 19000 ft 371 kts 93°
2026-04-29 20:28 32.59892 -100.65479 19000 ft 371 kts 93°
2026-04-29 20:28 32.59754 -100.62422 19000 ft 371 kts 93°
2026-04-29 20:29 32.59613 -100.59361 19000 ft 371 kts 93°
2026-04-29 20:29 32.59471 -100.56300 19000 ft 371 kts 93°
2026-04-29 20:29 32.59326 -100.53239 19000 ft 371 kts 93°
2026-04-29 20:29 32.59180 -100.50185 19000 ft 371 kts 93°
2026-04-29 20:30 32.59081 -100.48161 19000 ft 371 kts 94°
2026-04-29 20:30 32.58931 -100.45108 19000 ft 371 kts 94°
2026-04-29 20:30 32.58778 -100.42049 19000 ft 371 kts 94°
2026-04-29 20:30 32.58623 -100.38991 19000 ft 371 kts 94°
2026-04-29 20:31 32.58466 -100.35936 19000 ft 371 kts 94°
2026-04-29 20:31 32.58307 -100.32885 19000 ft 371 kts 94°
2026-04-29 20:31 32.58145 -100.29827 19000 ft 371 kts 94°
2026-04-29 20:31 32.57980 -100.26772 19000 ft 371 kts 94°
2026-04-29 20:32 32.57813 -100.23719 19000 ft 371 kts 94°
2026-04-29 20:32 32.57644 -100.20662 19000 ft 371 kts 94°
2026-04-29 20:32 32.57472 -100.17607 19000 ft 371 kts 94°
2026-04-29 20:32 32.57298 -100.14551 19000 ft 371 kts 94°
2026-04-29 20:33 32.57122 -100.11498 19000 ft 371 kts 94°
2026-04-29 20:33 32.56943 -100.08448 19000 ft 371 kts 94°
2026-04-29 20:33 32.56761 -100.05392 19000 ft 371 kts 94°
2026-04-29 20:33 32.56577 -100.02334 19000 ft 371 kts 94°
2026-04-29 20:34 32.56393 -99.99319 19000 ft 371 kts 94°
2026-04-29 20:34 32.56203 -99.96261 19000 ft 371 kts 94°
2026-04-29 20:34 32.56012 -99.93213 19000 ft 371 kts 94°
2026-04-29 20:34 32.55820 -99.90183 19000 ft 371 kts 95°
2026-04-29 20:35 32.55622 -99.87104 19000 ft 371 kts 95°
2026-04-29 20:35 32.55423 -99.84049 19000 ft 371 kts 95°
2026-04-29 20:35 32.55222 -99.80998 19000 ft 371 kts 95°
2026-04-29 20:35 32.55018 -99.77947 19000 ft 371 kts 95°
2026-04-29 20:36 32.54812 -99.74894 19000 ft 371 kts 95°
2026-04-29 20:36 32.54604 -99.71846 19000 ft 371 kts 95°
2026-04-29 20:36 32.54393 -99.68795 19000 ft 371 kts 95°
2026-04-29 20:36 32.54179 -99.65740 19000 ft 371 kts 95°
2026-04-29 20:37 32.53962 -99.62687 19000 ft 371 kts 95°
2026-04-29 20:37 32.53744 -99.59637 19000 ft 371 kts 95°
2026-04-29 20:37 32.53523 -99.56587 19000 ft 371 kts 95°
2026-04-29 20:37 32.53300 -99.53544 19000 ft 371 kts 95°
2026-04-29 20:38 32.53073 -99.50487 19000 ft 371 kts 95°
2026-04-29 20:38 32.52845 -99.47441 19000 ft 371 kts 95°
2026-04-29 20:38 32.52617 -99.44431 19000 ft 371 kts 95°
2026-04-29 20:38 32.52384 -99.41381 19000 ft 371 kts 95°
2026-04-29 20:39 32.52148 -99.38336 19000 ft 371 kts 95°
2026-04-29 20:39 32.51910 -99.35291 19000 ft 371 kts 96°
2026-04-29 20:39 32.51669 -99.32246 19000 ft 371 kts 96°
2026-04-29 20:39 32.51423 -99.29158 19000 ft 371 kts 96°
2026-04-29 20:40 32.51180 -99.26151 19000 ft 371 kts 96°
2026-04-29 20:40 32.50933 -99.23108 19000 ft 371 kts 96°
2026-04-29 20:40 32.50683 -99.20067 19000 ft 371 kts 96°
2026-04-29 20:40 32.50429 -99.17018 19000 ft 371 kts 96°
2026-04-29 20:41 32.50174 -99.13979 19000 ft 371 kts 96°
2026-04-29 20:41 32.49916 -99.10930 19000 ft 371 kts 96°
2026-04-29 20:41 32.49656 -99.07889 19000 ft 371 kts 96°
2026-04-29 20:41 32.49393 -99.04843 19000 ft 371 kts 96°
2026-04-29 20:42 32.49128 -99.01801 19000 ft 371 kts 96°
2026-04-29 20:42 32.48860 -98.98757 19000 ft 371 kts 96°
2026-04-29 20:42 32.48590 -98.95716 19000 ft 371 kts 96°
2026-04-29 20:42 32.48318 -98.92674 19000 ft 371 kts 96°
2026-04-29 20:43 32.48043 -98.89633 19000 ft 371 kts 96°
2026-04-29 20:43 32.47765 -98.86593 19000 ft 371 kts 96°
2026-04-29 20:43 32.47486 -98.83556 19000 ft 371 kts 96°
2026-04-29 20:43 32.47204 -98.80515 19000 ft 371 kts 97°
2026-04-29 20:44 32.46919 -98.77474 19000 ft 371 kts 97°
2026-04-29 20:44 32.46632 -98.74431 19000 ft 371 kts 97°
2026-04-29 20:44 32.46342 -98.71396 19000 ft 371 kts 97°
2026-04-29 20:44 32.46050 -98.68353 19000 ft 371 kts 97°
2026-04-29 20:45 32.45756 -98.65319 19000 ft 371 kts 97°
2026-04-29 20:45 32.45459 -98.62278 19000 ft 371 kts 97°
2026-04-29 20:45 32.45160 -98.59243 19000 ft 371 kts 97°
2026-04-29 20:45 32.44858 -98.56206 19000 ft 371 kts 97°
2026-04-29 20:46 32.44554 -98.53170 19000 ft 371 kts 97°
2026-04-29 20:46 32.44247 -98.50133 19000 ft 371 kts 97°
2026-04-29 20:46 32.43938 -98.47096 19000 ft 371 kts 97°
2026-04-29 20:46 32.43627 -98.44069 19000 ft 371 kts 97°
2026-04-29 20:47 32.43316 -98.41066 19000 ft 371 kts 97°
2026-04-29 20:47 32.43000 -98.38033 19000 ft 371 kts 97°
2026-04-29 20:47 32.42681 -98.35000 19000 ft 372 kts 97°
2026-04-29 20:47 32.42363 -98.31994 19000 ft 372 kts 97°
2026-04-29 20:48 32.42037 -98.28938 19000 ft 372 kts 97°
2026-04-29 20:48 32.41710 -98.25899 19000 ft 372 kts 98°
2026-04-29 20:48 32.41382 -98.22867 19000 ft 372 kts 98°
2026-04-29 20:48 32.41051 -98.19840 19000 ft 372 kts 98°
2026-04-29 20:49 32.40717 -98.16808 19000 ft 372 kts 98°
2026-04-29 20:49 32.40381 -98.13776 19000 ft 372 kts 98°
2026-04-29 20:49 32.40043 -98.10744 19000 ft 372 kts 98°
2026-04-29 20:49 32.39702 -98.07712 19000 ft 372 kts 98°
2026-04-29 20:50 32.39359 -98.04686 19000 ft 372 kts 98°
2026-04-29 20:50 32.39013 -98.01655 19000 ft 372 kts 98°
2026-04-29 20:50 32.38665 -97.98626 19000 ft 372 kts 98°
2026-04-29 20:50 32.38314 -97.95598 19000 ft 372 kts 98°
2026-04-29 20:51 32.37961 -97.92572 19000 ft 372 kts 98°
2026-04-29 20:51 32.37605 -97.89541 19000 ft 372 kts 98°
2026-04-29 20:51 32.37248 -97.86519 19000 ft 372 kts 98°
2026-04-29 20:51 32.36887 -97.83491 19000 ft 372 kts 98°
2026-04-29 20:52 32.36524 -97.80464 19000 ft 372 kts 98°
2026-04-29 20:52 32.36159 -97.77439 19000 ft 372 kts 98°
2026-04-29 20:52 32.35791 -97.74414 19000 ft 372 kts 98°
2026-04-29 20:52 32.35421 -97.71392 19000 ft 372 kts 99°
2026-04-29 20:53 32.35048 -97.68368 19000 ft 372 kts 99°
2026-04-29 20:53 32.34673 -97.65342 19000 ft 372 kts 99°
2026-04-29 20:53 32.34296 -97.62321 19000 ft 372 kts 99°
2026-04-29 20:53 32.33916 -97.59302 19000 ft 372 kts 99°
2026-04-29 20:54 32.33149 -97.53258 19000 ft 372 kts 99°
2026-04-29 20:54 32.32762 -97.50242 19000 ft 372 kts 99°
2026-04-29 20:54 32.32372 -97.47217 19000 ft 372 kts 99°
2026-04-29 20:55 32.31980 -97.44196 19000 ft 372 kts 99°
2026-04-29 20:55 32.31591 -97.41220 19000 ft 372 kts 99°
2026-04-29 20:55 32.31194 -97.38202 19000 ft 372 kts 99°
2026-04-29 20:55 32.30795 -97.35185 19000 ft 372 kts 99°
2026-04-29 20:56 32.30393 -97.32170 19000 ft 372 kts 99°
2026-04-29 20:56 32.29988 -97.29148 19000 ft 372 kts 99°
2026-04-29 20:56 32.29582 -97.26133 19000 ft 372 kts 99°
2026-04-29 20:56 32.29173 -97.23120 19000 ft 372 kts 99°
2026-04-29 20:57 32.28762 -97.20107 19000 ft 372 kts 99°
2026-04-29 20:57 32.28348 -97.17093 19000 ft 372 kts 100°
2026-04-29 20:57 32.27931 -97.14076 19000 ft 372 kts 100°
2026-04-29 20:57 32.27510 -97.11045 19000 ft 372 kts 100°
2026-04-29 20:58 32.27090 -97.08039 19000 ft 372 kts 100°
2026-04-29 20:58 32.26666 -97.05028 19000 ft 372 kts 100°
2026-04-29 20:58 32.26239 -97.02012 19000 ft 372 kts 100°
2026-04-29 20:58 32.25810 -96.98997 19000 ft 372 kts 100°
2026-04-29 20:59 32.25380 -96.95994 19000 ft 372 kts 100°
2026-04-29 20:59 32.24947 -96.92982 19000 ft 372 kts 100°
2026-04-29 20:59 32.24510 -96.89968 19000 ft 372 kts 100°
2026-04-29 20:59 32.24078 -96.87002 19000 ft 372 kts 100°
2026-04-29 21:00 32.23639 -96.84001 19000 ft 372 kts 100°
2026-04-29 21:00 32.23195 -96.80990 19000 ft 372 kts 101°
2026-04-29 21:00 32.22751 -96.77989 19000 ft 372 kts 101°
2026-04-29 21:00 32.22302 -96.74975 19000 ft 372 kts 101°
2026-04-29 21:01 32.21853 -96.71976 19000 ft 372 kts 101°
2026-04-29 21:01 32.21400 -96.68968 19000 ft 372 kts 101°
2026-04-29 21:01 32.20944 -96.65960 19000 ft 372 kts 101°
2026-04-29 21:01 32.20487 -96.62959 19000 ft 372 kts 101°
2026-04-29 21:02 32.20027 -96.59958 19000 ft 372 kts 101°
2026-04-29 21:02 32.19565 -96.56957 19000 ft 372 kts 101°
2026-04-29 21:02 32.19101 -96.53956 19000 ft 372 kts 101°
2026-04-29 21:02 32.18634 -96.50954 19000 ft 372 kts 101°
2026-04-29 21:03 32.18165 -96.47960 19000 ft 372 kts 101°
2026-04-29 21:03 32.17693 -96.44957 19000 ft 372 kts 101°
2026-04-29 21:03 32.17219 -96.41959 19000 ft 372 kts 101°
2026-04-29 21:03 32.16742 -96.38957 19000 ft 372 kts 101°
2026-04-29 21:04 32.16262 -96.35958 19000 ft 372 kts 101°
2026-04-29 21:04 32.15782 -96.32969 19000 ft 372 kts 101°
2026-04-29 21:04 32.15298 -96.29971 19000 ft 372 kts 101°
2026-04-29 21:04 32.14811 -96.26974 19000 ft 372 kts 102°
2026-04-29 21:05 32.14322 -96.23976 19000 ft 372 kts 102°
2026-04-29 21:05 32.13832 -96.20985 19000 ft 372 kts 102°
2026-04-29 21:05 32.13339 -96.17999 19000 ft 372 kts 102°
2026-04-29 21:05 32.12843 -96.15003 19000 ft 372 kts 102°
2026-04-29 21:06 32.12345 -96.12014 19000 ft 372 kts 102°
2026-04-29 21:06 32.11844 -96.09023 19000 ft 372 kts 102°
2026-04-29 21:06 32.11341 -96.06031 19000 ft 372 kts 102°
2026-04-29 21:06 32.10835 -96.03038 19000 ft 372 kts 102°
2026-04-29 21:07 32.10328 -96.00055 19000 ft 372 kts 102°
2026-04-29 21:07 32.09816 -95.97058 19000 ft 372 kts 102°
2026-04-29 21:07 32.09478 -95.95085 19000 ft 372 kts 102°
2026-04-29 21:07 32.08790 -95.91090 19000 ft 372 kts 102°
2026-04-29 21:08 32.08272 -95.88105 19000 ft 372 kts 102°
2026-04-29 21:08 32.07752 -95.85117 19000 ft 372 kts 102°
2026-04-29 21:08 32.07230 -95.82133 19000 ft 372 kts 102°
2026-04-29 21:08 32.06705 -95.79146 19000 ft 372 kts 102°
2026-04-29 21:09 32.06179 -95.76169 19000 ft 372 kts 102°
2026-04-29 21:09 32.05649 -95.73183 19000 ft 372 kts 103°
2026-04-29 21:09 32.05117 -95.70203 19000 ft 372 kts 103°
2026-04-29 21:09 32.04583 -95.67222 19000 ft 372 kts 103°
2026-04-29 21:10 32.04047 -95.64246 19000 ft 372 kts 103°
2026-04-29 21:10 32.03508 -95.61264 19000 ft 372 kts 103°
2026-04-29 21:10 32.02974 -95.58327 19000 ft 372 kts 103°
2026-04-29 21:10 32.02430 -95.55346 19000 ft 372 kts 103°
2026-04-29 21:11 32.01884 -95.52371 19000 ft 372 kts 103°
2026-04-29 21:11 32.01337 -95.49403 19000 ft 372 kts 103°
2026-04-29 21:11 32.00789 -95.46442 19000 ft 372 kts 103°
2026-04-29 21:11 32.00231 -95.43441 19000 ft 372 kts 103°
2026-04-29 21:12 31.99678 -95.40464 19000 ft 372 kts 103°
2026-04-29 21:12 31.99201 -95.37483 19094 ft 368 kts 95°
2026-04-29 21:12 31.99598 -95.34599 19527 ft 350 kts 66°
2026-04-29 21:12 32.01031 -95.32395 19789 ft 338 kts 38°
2026-04-29 21:13 32.03097 -95.31136 19814 ft 332 kts 15°
2026-04-29 21:13 32.05261 -95.30220 20071 ft 331 kts 15°
2026-04-29 21:13 32.07455 -95.29309 20049 ft 336 kts 12°
2026-04-29 21:13 32.09758 -95.28906 19614 ft 331 kts 359°
2026-04-29 21:14 32.12023 -95.28895 19084 ft 323 kts 353°
2026-04-29 21:14 32.14252 -95.29039 18540 ft 318 kts 352°
2026-04-29 21:14 32.16428 -95.29295 18067 ft 310 kts 347°
2026-04-29 21:14 32.18534 -95.29785 17430 ft 308 kts 342°
2026-04-29 21:15 32.20626 -95.30408 16668 ft 312 kts 341°
2026-04-29 21:15 32.22738 -95.31047 15868 ft 315 kts 341°
2026-04-29 21:15 32.24839 -95.31798 14956 ft 312 kts 332°
2026-04-29 21:15 32.26396 -95.33602 12896 ft 331 kts 298°
2026-04-29 21:16 32.26961 -95.36271 11257 ft 346 kts 272°
2026-04-29 21:16 32.26537 -95.39031 10139 ft 341 kts 251°
2026-04-29 21:16 32.25174 -95.41284 9110 ft 339 kts 220°
2026-04-29 21:16 32.22944 -95.41922 8266 ft 340 kts 174°
2026-04-29 21:17 32.20958 -95.40514 7455 ft 340 kts 133°
2026-04-29 21:17 32.20122 -95.37935 6163 ft 347 kts 92°
2026-04-29 21:17 32.20877 -95.35307 4800 ft 340 kts 51°
2026-04-29 21:17 32.22880 -95.33915 3624 ft 332 kts 17°
2026-04-29 21:18 32.24870 -95.33363 3739 ft 257 kts
2026-04-29 21:18 32.26047 -95.33302 3454 ft 255 kts 359°
2026-04-29 21:18 32.27745 -95.33717 3027 ft 235 kts 337°
2026-04-29 21:18 32.29161 -95.34496 2549 ft 213 kts 337°
2026-04-29 21:19 32.30461 -95.35079 2133 ft 187 kts 339°
2026-04-29 21:19 32.31567 -95.35681 1754 ft 162 kts 330°
2026-04-29 21:19 32.32308 -95.36396 1684 ft 120 kts 320°
2026-04-29 21:19 32.33060 -95.36985 1466 ft 123 kts 322°
2026-04-29 21:20 32.33729 -95.37611 1139 ft 136 kts 316°
2026-04-29 21:20 32.34348 -95.38435 895 ft 132 kts 310°
2026-04-29 21:20 32.34984 -95.39200 648 ft 130 kts 315°
2026-04-29 21:20 32.35573 -95.39881 561 ft 91 kts 315°
2026-04-29 21:21 32.35797 -95.40124 561 ft 7 kts
2026-04-29 21:21 32.35826 -95.40011 561 ft 26 kts 72°
2026-04-29 21:21 32.35876 -95.39861 561 ft 2 kts 38°